| time (UTC) | temp F | wind direction | speed MPH | gust MPH | rain 1hr in | rain 24hr in | rain mn in | humidity % | barometer mb |
| 20260904022249 | 87 | 197 | 0.0 | 1.0 | 0.00 | 0.00 | 0.00 | 64 | 1014.9 |
| 20260904021723 | 87 | 197 | 0.0 | 1.0 | 0.00 | 0.00 | 0.00 | 64 | 1014.9 |
| 20260904021554 | 87 | 197 | 0.0 | 1.0 | 0.00 | 0.00 | 0.00 | 64 | 1013.1 |
| 20260904021156 | 88 | 197 | 0.0 | 3.0 | 0.00 | 0.00 | 0.00 | 64 | 1014.9 |
| 20260904020627 | 88 | 197 | 1.0 | 3.0 | 0.00 | 0.00 | 0.00 | 63 | 1014.8 |
| 20260904020059 | 88 | 198 | 1.0 | 2.0 | 0.00 | 0.00 | 0.00 | 63 | 1014.8 |
| 20260904020007 | 87 | 198 | 0.0 | 2.0 | 0.00 | 0.00 | 0.00 | 63 | 1013.0 |
| 20260904015820 | 88 | 198 | 1.0 | 2.0 | 0.00 | 0.00 | 0.00 | 63 | 1014.9 |
| 20260904015028 | 88 | 198 | 1.0 | 2.0 | 0.00 | 0.00 | 0.00 | 63 | 1014.9 |
| 20260904014615 | 87 | 198 | 1.0 | 2.0 | 0.00 | 0.00 | 0.00 | 63 | 1013.2 |
| 20260904014527 | 87 | 198 | 1.0 | 2.0 | 0.00 | 0.00 | 0.00 | 63 | 1015.0 |
| 20260904014003 | 87 | 199 | 0.0 | 1.0 | 0.00 | 0.00 | 0.00 | 64 | 1015.0 |
| 20260904013434 | 87 | 199 | 0.0 | 1.0 | 0.00 | 0.00 | 0.00 | 63 | 1015.0 |
| 20260904013049 | 87 | 199 | 0.0 | 1.0 | 0.00 | 0.00 | 0.00 | 63 | 1013.2 |
| 20260904012929 | 87 | 199 | 0.0 | 0.0 | 0.00 | 0.00 | 0.00 | 63 | 1015.0 |
| 20260904012429 | 88 | 199 | 0.0 | 0.0 | 0.00 | 0.00 | 0.00 | 63 | 1015.0 |
| 20260904011859 | 88 | 199 | 0.0 | 0.0 | 0.00 | 0.00 | 0.00 | 62 | 1015.0 |
| 20260904011513 | 87 | 199 | 0.0 | 0.0 | 0.00 | 0.00 | 0.00 | 62 | 1013.1 |
| 20260904011355 | 88 | 199 | 0.0 | 0.0 | 0.00 | 0.00 | 0.00 | 62 | 1015.0 |
| 20260904010853 | 88 | 199 | 0.0 | 0.0 | 0.00 | 0.00 | 0.00 | 62 | 1015.0 |
| 20260904010345 | 88 | 199 | 0.0 | 0.0 | 0.00 | 0.00 | 0.00 | 62 | 1015.0 |
| 20260904010033 | 88 | 199 | 0.0 | 0.0 | 0.00 | 0.00 | 0.00 | 61 | 1013.1 |
| 20260904005843 | 88 | 199 | 0.0 | 0.0 | 0.00 | 0.00 | 0.00 | 61 | 1014.8 |
| 20260904005318 | 89 | 273 | 0.0 | 0.0 | 0.00 | 0.00 | 0.00 | 61 | 1014.8 |
| 20260904005018 | 89 | 205 | 0.0 | 1.0 | 0.00 | 0.00 | 0.00 | 60 | 1014.7 |
| 20260904004547 | 88 | 205 | 0.0 | 1.0 | 0.00 | 0.00 | 0.00 | 60 | 1012.8 |
| 20260904004510 | 89 | 273 | 0.0 | 1.0 | 0.00 | 0.00 | 0.00 | 60 | 1014.7 |
| 20260904003722 | 89 | 273 | 0.0 | 1.0 | 0.00 | 0.00 | 0.00 | 60 | 1014.6 |
| 20260904003413 | 89 | 205 | 0.0 | 1.0 | 0.00 | 0.00 | 0.00 | 59 | 1014.5 |
| 20260904003100 | 89 | 201 | 0.0 | 1.0 | 0.00 | 0.00 | 0.00 | 59 | 1012.7 |
| 20260904002650 | 89 | 199 | 0.0 | 1.0 | 0.00 | 0.00 | 0.00 | 59 | 1014.5 |
| 20260904002134 | 89 | 199 | 0.0 | 2.0 | 0.00 | 0.00 | 0.00 | 59 | 1014.5 |
| 20260904001821 | 89 | 199 | 0.0 | 2.0 | 0.00 | 0.00 | 0.00 | 59 | 1014.4 |
| 20260904001505 | 89 | 199 | 0.0 | 2.0 | 0.00 | 0.00 | 0.00 | 59 | 1012.6 |
| 20260904001056 | 90 | 199 | 1.0 | 4.0 | 0.00 | 0.00 | 0.00 | 58 | 1014.4 |
| 20260904000751 | 90 | 199 | 1.0 | 4.0 | 0.00 | 0.00 | 0.00 | 58 | 1014.4 |
| 20260904000019 | 90 | 246 | 0.0 | 4.0 | 0.00 | 0.00 | 0.00 | 57 | 1012.6 |
| 20260904000001 | 90 | 244 | 1.0 | 4.0 | 0.00 | 0.00 | 0.00 | 57 | 1014.4 |
| 20260903235459 | 90 | 227 | 2.0 | 8.0 | 0.00 | 0.00 | 0.00 | 57 | 1014.4 |
| 20260903234936 | 91 | 198 | 2.0 | 8.0 | 0.00 | 0.00 | 0.00 | 57 | 1014.4 |
| 20260903234557 | 90 | 201 | 1.0 | 7.0 | 0.00 | 0.00 | 0.00 | 57 | 1012.6 |
| 20260903234429 | 91 | 201 | 2.0 | 7.0 | 0.00 | 0.00 | 0.00 | 56 | 1014.4 |
| 20260903233929 | 91 | 198 | 2.0 | 8.0 | 0.00 | 0.00 | 0.00 | 56 | 1014.4 |
| 20260903233407 | 91 | 200 | 3.0 | 8.0 | 0.00 | 0.00 | 0.00 | 56 | 1014.3 |
| 20260903233106 | 91 | 197 | 3.0 | 8.0 | 0.00 | 0.00 | 0.00 | 55 | 1012.5 |
| 20260903232829 | 91 | 201 | 2.0 | 8.0 | 0.00 | 0.00 | 0.00 | 56 | 1014.3 |
| 20260903232327 | 92 | 214 | 2.0 | 7.0 | 0.00 | 0.00 | 0.00 | 55 | 1014.2 |
| 20260903231801 | 92 | 180 | 2.0 | 7.0 | 0.00 | 0.00 | 0.00 | 54 | 1014.2 |
| 20260903231516 | 92 | 182 | 2.0 | 7.0 | 0.00 | 0.00 | 0.00 | 54 | 1012.4 |
| 20260903231236 | 92 | 201 | 3.0 | 7.0 | 0.00 | 0.00 | 0.00 | 54 | 1014.1 |
| 20260903230707 | 92 | 217 | 3.0 | 8.0 | 0.00 | 0.00 | 0.00 | 54 | 1014.2 |
| 20260903230426 | 93 | 162 | 4.0 | 9.0 | 0.00 | 0.00 | 0.00 | 53 | 1014.1 |
| 20260903230050 | 92 | 138 | 3.0 | 8.0 | 0.00 | 0.00 | 0.00 | 53 | 1012.3 |
| 20260903225639 | 93 | 232 | 3.0 | 9.0 | 0.00 | 0.00 | 0.00 | 52 | 1014.1 |
| 20260903225112 | 93 | 160 | 3.0 | 10.0 | 0.00 | 0.00 | 0.00 | 52 | 1014.2 |
| 20260903224610 | 93 | 159 | 3.0 | 10.0 | 0.00 | 0.00 | 0.00 | 51 | 1014.2 |
| 20260903224542 | 93 | 212 | 4.0 | 10.0 | 0.00 | 0.00 | 0.00 | 52 | 1012.4 |
| 20260903224043 | 93 | 167 | 4.0 | 10.0 | 0.00 | 0.00 | 0.00 | 52 | 1014.2 |
| 20260903223539 | 94 | 190 | 5.0 | 13.0 | 0.00 | 0.00 | 0.00 | 51 | 1014.1 |
| 20260903223038 | 94 | 199 | 5.0 | 13.0 | 0.00 | 0.00 | 0.00 | 50 | 1014.1 |
| 20260903223007 | 93 | 201 | 6.0 | 13.0 | 0.00 | 0.00 | 0.00 | 50 | 1012.3 |
| 20260903222512 | 94 | 204 | 5.0 | 11.0 | 0.00 | 0.00 | 0.00 | 50 | 1014.0 |
| 20260903221944 | 94 | 228 | 5.0 | 13.0 | 0.00 | 0.00 | 0.00 | 50 | 1014.0 |
| 20260903221540 | 93 | 231 | 5.0 | 13.0 | 0.00 | 0.00 | 0.00 | 51 | 1012.1 |
| 20260903221441 | 94 | 166 | 5.0 | 13.0 | 0.00 | 0.00 | 0.00 | 50 | 1013.9 |
| 20260903220915 | 94 | 159 | 6.0 | 13.0 | 0.00 | 0.00 | 0.00 | 50 | 1013.8 |
| 20260903220347 | 94 | 185 | 5.0 | 11.0 | 0.00 | 0.00 | 0.00 | 50 | 1013.8 |
| 20260903220035 | 94 | 196 | 5.0 | 11.0 | 0.00 | 0.00 | 0.00 | 50 | 1011.9 |
| 20260903215846 | 94 | 202 | 5.0 | 12.0 | 0.00 | 0.00 | 0.00 | 49 | 1013.7 |
| 20260903215316 | 94 | 191 | 5.0 | 12.0 | 0.00 | 0.00 | 0.00 | 49 | 1013.6 |
| 20260903214816 | 95 | 215 | 4.0 | 9.0 | 0.00 | 0.00 | 0.00 | 50 | 1013.5 |
| 20260903214533 | 94 | 88 | 4.0 | 10.0 | 0.00 | 0.00 | 0.00 | 51 | 1011.6 |
| 20260903214249 | 95 | 205 | 5.0 | 18.0 | 0.00 | 0.00 | 0.00 | 50 | 1013.5 |
| 20260903213721 | 95 | 207 | 6.0 | 18.0 | 0.00 | 0.00 | 0.00 | 49 | 1013.5 |
| 20260903213221 | 95 | 120 | 5.0 | 12.0 | 0.00 | 0.00 | 0.00 | 49 | 1013.5 |
| 20260903213040 | 94 | 133 | 3.0 | 12.0 | 0.00 | 0.00 | 0.00 | 50 | 1011.6 |
| 20260903212652 | 95 | 46 | 4.0 | 12.0 | 0.00 | 0.00 | 0.00 | 49 | 1013.5 |
| 20260903212417 | 95 | 180 | 4.0 | 10.0 | 0.00 | 0.00 | 0.00 | 49 | 1013.5 |
| 20260903211625 | 95 | 190 | 4.0 | 11.0 | 0.00 | 0.00 | 0.00 | 48 | 1013.5 |
| 20260903211507 | 95 | 211 | 4.0 | 9.0 | 0.00 | 0.00 | 0.00 | 48 | 1011.7 |
| 20260903211057 | 95 | 207 | 4.0 | 11.0 | 0.00 | 0.00 | 0.00 | 49 | 1013.6 |
| 20260903210530 | 95 | 136 | 4.0 | 10.0 | 0.00 | 0.00 | 0.00 | 51 | 1013.6 |
| 20260903210112 | 94 | 116 | 4.0 | 9.0 | 0.00 | 0.00 | 0.00 | 49 | 1011.7 |
| 20260903210027 | 95 | 209 | 4.0 | 8.0 | 0.00 | 0.00 | 0.00 | 49 | 1013.6 |
| 20260903205459 | 95 | 215 | 5.0 | 14.0 | 0.00 | 0.00 | 0.00 | 48 | 1013.7 |
| 20260903205217 | 95 | 159 | 5.0 | 14.0 | 0.00 | 0.00 | 0.00 | 49 | 1013.7 |
| 20260903204654 | 95 | 205 | 5.0 | 11.0 | 0.00 | 0.00 | 0.00 | 49 | 1013.7 |
| 20260903204513 | 95 | 199 | 4.0 | 11.0 | 0.00 | 0.00 | 0.00 | 47 | 1012.0 |
| 20260903203931 | 96 | 230 | 6.0 | 17.0 | 0.00 | 0.00 | 0.00 | 47 | 1013.8 |
| 20260903203431 | 96 | 127 | 6.0 | 17.0 | 0.00 | 0.00 | 0.00 | 47 | 1013.9 |
| 20260903203124 | 96 | 130 | 4.0 | 12.0 | 0.00 | 0.00 | 0.00 | 47 | 1014.0 |
| 20260903203054 | 95 | 238 | 8.0 | 15.0 | 0.00 | 0.00 | 0.00 | 45 | 1012.1 |
| 20260903202600 | 96 | 183 | 5.0 | 15.0 | 0.00 | 0.00 | 0.00 | 47 | 1014.1 |
| 20260903201813 | 96 | 199 | 5.0 | 12.0 | 0.00 | 0.00 | 0.00 | 47 | 1014.1 |
| 20260903201522 | 95 | 199 | 3.0 | 15.0 | 0.00 | 0.00 | 0.00 | 48 | 1012.3 |
| 20260903201253 | 95 | 117 | 7.0 | 15.0 | 0.00 | 0.00 | 0.00 | 47 | 1014.2 |
| 20260903200754 | 95 | 176 | 6.0 | 15.0 | 0.00 | 0.00 | 0.00 | 46 | 1014.4 |
| 20260903200226 | 95 | 204 | 5.0 | 12.0 | 0.00 | 0.00 | 0.00 | 48 | 1014.3 |
| 20260903200039 | 95 | 171 | 3.0 | 12.0 | 0.00 | 0.00 | 0.00 | 47 | 1012.7 |
| 20260903195727 | 95 | 111 | 6.0 | 15.0 | 0.00 | 0.00 | 0.00 | 46 | 1014.5 |
| 20260903195444 | 96 | 130 | 4.0 | 15.0 | 0.00 | 0.00 | 0.00 | 47 | 1014.6 |
| 20260903194727 | 96 | 163 | 5.0 | 13.0 | 0.00 | 0.00 | 0.00 | 48 | 1014.7 |
| 20260903194701 | 96 | 106 | 5.0 | 15.0 | 0.00 | 0.00 | 0.00 | 47 | 1014.7 |
| 20260903194546 | 95 | 109 | 4.0 | 9.0 | 0.00 | 0.00 | 0.00 | 48 | 1012.8 |
| 20260903193712 | 96 | 174 | 5.0 | 15.0 | 0.00 | 0.00 | 0.00 | 47 | 1014.8 |
| 20260903193208 | 96 | 205 | 5.0 | 16.0 | 0.00 | 0.00 | 0.00 | 48 | 1014.7 |
| 20260903193005 | 95 | 125 | 3.0 | 16.0 | 0.00 | 0.00 | 0.00 | 47 | 1012.9 |
| 20260903192934 | 96 | 208 | 5.0 | 16.0 | 0.00 | 0.00 | 0.00 | 47 | 1014.8 |
| 20260903192146 | 96 | 40 | 5.0 | 12.0 | 0.00 | 0.00 | 0.00 | 47 | 1014.9 |
| 20260903191647 | 96 | 188 | 5.0 | 12.0 | 0.00 | 0.00 | 0.00 | 47 | 1015.0 |
| 20260903191505 | 95 | 155 | 4.0 | 12.0 | 0.00 | 0.00 | 0.00 | 47 | 1013.1 |
| 20260903191338 | 96 | 143 | 5.0 | 13.0 | 0.00 | 0.00 | 0.00 | 47 | 1015.0 |
| 20260903190619 | 96 | 149 | 4.0 | 13.0 | 0.00 | 0.00 | 0.00 | 46 | 1015.1 |
| 20260903190322 | 96 | 211 | 3.0 | 9.0 | 0.00 | 0.00 | 0.00 | 46 | 1015.0 |
| 20260903190038 | 96 | 213 | 3.0 | 9.0 | 0.00 | 0.00 | 0.00 | 46 | 1013.2 |
| 20260903185535 | 96 | 157 | 4.0 | 11.0 | 0.00 | 0.00 | 0.00 | 49 | 1015.1 |
| 20260903185037 | 95 | 198 | 5.0 | 13.0 | 0.00 | 0.00 | 0.00 | 48 | 1015.2 |
| 20260903184802 | 95 | 170 | 6.0 | 12.0 | 0.00 | 0.00 | 0.00 | 47 | 1015.2 |
| 20260903184507 | 95 | 122 | 5.0 | 12.0 | 0.00 | 0.00 | 0.00 | 47 | 1013.4 |
| 20260903184012 | 95 | 202 | 6.0 | 13.0 | 0.00 | 0.00 | 0.00 | 47 | 1015.2 |
| 20260903183718 | 96 | 202 | 5.0 | 10.0 | 0.00 | 0.00 | 0.00 | 47 | 1015.2 |
| 20260903183010 | 95 | 190 | 3.0 | 11.0 | 0.00 | 0.00 | 0.00 | 49 | 1013.5 |
| 20260903182934 | 96 | 170 | 4.0 | 11.0 | 0.00 | 0.00 | 0.00 | 48 | 1015.3 |
| 20260903182428 | 95 | 215 | 5.0 | 11.0 | 0.00 | 0.00 | 0.00 | 49 | 1015.3 |
| 20260903181927 | 95 | 82 | 5.0 | 11.0 | 0.00 | 0.00 | 0.00 | 48 | 1015.3 |
| 20260903181541 | 94 | 215 | 4.0 | 12.0 | 0.00 | 0.00 | 0.00 | 50 | 1013.5 |
| 20260903181427 | 94 | 136 | 4.0 | 12.0 | 0.00 | 0.00 | 0.00 | 54 | 1015.3 |
| 20260903181148 | 94 | 211 | 5.0 | 12.0 | 0.00 | 0.00 | 0.00 | 49 | 1015.3 |
| 20260903180411 | 94 | 163 | 4.0 | 11.0 | 0.00 | 0.00 | 0.00 | 51 | 1015.4 |
| 20260903180105 | 94 | 219 | 4.0 | 11.0 | 0.00 | 0.00 | 0.00 | 50 | 1013.6 |
| 20260903175908 | 94 | 192 | 4.0 | 14.0 | 0.00 | 0.00 | 0.00 | 51 | 1015.4 |
| 20260903175405 | 94 | 128 | 6.0 | 10.0 | 0.00 | 0.00 | 0.00 | 51 | 1015.4 |
| 20260903174848 | 94 | 71 | 6.0 | 14.0 | 0.00 | 0.00 | 0.00 | 50 | 1015.4 |
| 20260903174534 | 94 | 242 | 6.0 | 14.0 | 0.00 | 0.00 | 0.00 | 51 | 1013.7 |
| 20260903174348 | 94 | 208 | 5.0 | 11.0 | 0.00 | 0.00 | 0.00 | 51 | 1015.5 |
| 20260903174051 | 94 | 120 | 5.0 | 11.0 | 0.00 | 0.00 | 0.00 | 51 | 1015.6 |
| 20260903173255 | 94 | 147 | 4.0 | 11.0 | 0.00 | 0.00 | 0.00 | 53 | 1015.6 |
| 20260903173043 | 94 | 146 | 5.0 | 11.0 | 0.00 | 0.00 | 0.00 | 52 | 1013.9 |
| 20260903172757 | 94 | 185 | 4.0 | 11.0 | 0.00 | 0.00 | 0.00 | 52 | 1015.7 |
| 20260903172230 | 94 | 189 | 4.0 | 10.0 | 0.00 | 0.00 | 0.00 | 53 | 1015.7 |
| 20260903171705 | 94 | 151 | 3.0 | 11.0 | 0.00 | 0.00 | 0.00 | 52 | 1015.8 |
| 20260903171526 | 93 | 212 | 2.0 | 11.0 | 0.00 | 0.00 | 0.00 | 52 | 1014.0 |
| 20260903171138 | 94 | 194 | 3.0 | 11.0 | 0.00 | 0.00 | 0.00 | 54 | 1015.8 |
| 20260903170645 | 93 | 188 | 4.0 | 9.0 | 0.00 | 0.00 | 0.00 | 52 | 1015.9 |
| 20260903170638 | 94 | 116 | 3.0 | 9.0 | 0.00 | 0.00 | 0.00 | 53 | 1015.9 |
| 20260903170045 | 93 | 188 | 4.0 | 9.0 | 0.00 | 0.00 | 0.00 | 52 | 1014.1 |
| 20260903165813 | 93 | 184 | 4.0 | 9.0 | 0.00 | 0.00 | 0.00 | 55 | 1015.9 |
| 20260903165317 | 93 | 187 | 4.0 | 10.0 | 0.00 | 0.00 | 0.00 | 54 | 1016.0 |
| 20260903164552 | 93 | 210 | 4.0 | 10.0 | 0.00 | 0.00 | 0.00 | 52 | 1016.1 |
| 20260903164522 | 92 | 209 | 4.0 | 10.0 | 0.00 | 0.00 | 0.00 | 52 | 1014.4 |
| 20260903164032 | 93 | 179 | 4.0 | 10.0 | 0.00 | 0.00 | 0.00 | 55 | 1016.2 |
| 20260903163729 | 92 | 120 | 4.0 | 10.0 | 0.00 | 0.00 | 0.00 | 52 | 1016.2 |
| 20260903163157 | 92 | 185 | 3.0 | 9.0 | 0.00 | 0.00 | 0.00 | 55 | 1016.3 |
| 20260903163037 | 92 | 140 | 2.0 | 8.0 | 0.00 | 0.00 | 0.00 | 55 | 1014.5 |
| 20260903162432 | 92 | 138 | 4.0 | 9.0 | 0.00 | 0.00 | 0.00 | 58 | 1016.3 |
| 20260903162149 | 92 | 188 | 4.0 | 9.0 | 0.00 | 0.00 | 0.00 | 57 | 1016.3 |
| 20260903161513 | 91 | 181 | 5.0 | 11.0 | 0.00 | 0.00 | 0.00 | 56 | 1014.6 |
| 20260903161428 | 91 | 136 | 4.0 | 11.0 | 0.00 | 0.00 | 0.00 | 56 | 1016.3 |
| 20260903160927 | 91 | 151 | 5.0 | 12.0 | 0.00 | 0.00 | 0.00 | 58 | 1016.4 |
| 20260903160420 | 91 | 167 | 5.0 | 12.0 | 0.00 | 0.00 | 0.00 | 57 | 1016.4 |
| 20260903160111 | 90 | 200 | 4.0 | 11.0 | 0.00 | 0.00 | 0.00 | 58 | 1014.6 |
| 20260903155917 | 91 | 206 | 5.0 | 12.0 | 0.00 | 0.00 | 0.00 | 57 | 1016.4 |
| 20260903155612 | 90 | 209 | 4.0 | 12.0 | 0.00 | 0.00 | 0.00 | 57 | 1016.5 |
| 20260903154827 | 90 | 203 | 4.0 | 10.0 | 0.00 | 0.00 | 0.00 | 60 | 1016.4 |
| 20260903154542 | 90 | 149 | 4.0 | 10.0 | 0.00 | 0.00 | 0.00 | 60 | 1014.7 |
| 20260903154302 | 90 | 194 | 4.0 | 9.0 | 0.00 | 0.00 | 0.00 | 61 | 1016.5 |
| 20260903153731 | 90 | 177 | 3.0 | 7.0 | 0.00 | 0.00 | 0.00 | 62 | 1016.4 |
| 20260903153229 | 90 | 44 | 3.0 | 6.0 | 0.00 | 0.00 | 0.00 | 63 | 1016.4 |
| 20260903153026 | 89 | 167 | 2.0 | 7.0 | 0.00 | 0.00 | 0.00 | 63 | 1014.7 |
| 20260903152728 | 90 | 166 | 3.0 | 7.0 | 0.00 | 0.00 | 0.00 | 63 | 1016.4 |
| 20260903152202 | 89 | 185 | 3.0 | 9.0 | 0.00 | 0.00 | 0.00 | 63 | 1016.4 |
| 20260903151636 | 89 | 134 | 2.0 | 8.0 | 0.00 | 0.00 | 0.00 | 64 | 1016.4 |
| 20260903151525 | 89 | 132 | 2.0 | 8.0 | 0.00 | 0.00 | 0.00 | 63 | 1014.7 |
| 20260903151135 | 89 | 188 | 2.0 | 6.0 | 0.00 | 0.00 | 0.00 | 65 | 1016.4 |
| 20260903150608 | 89 | 186 | 3.0 | 8.0 | 0.00 | 0.00 | 0.00 | 64 | 1016.4 |
| 20260903150043 | 89 | 152 | 3.0 | 8.0 | 0.00 | 0.00 | 0.00 | 65 | 1016.3 |
| 20260903150014 | 88 | 152 | 3.0 | 8.0 | 0.00 | 0.00 | 0.00 | 64 | 1014.6 |
| 20260903145517 | 89 | 199 | 3.0 | 7.0 | 0.00 | 0.00 | 0.00 | 64 | 1016.4 |
| 20260903145207 | 89 | 202 | 2.0 | 6.0 | 0.00 | 0.00 | 0.00 | 63 | 1016.4 |
| 20260903144526 | 88 | 191 | 2.0 | 5.0 | 0.00 | 0.00 | 0.00 | 66 | 1014.6 |
| 20260903144446 | 89 | 184 | 2.0 | 6.0 | 0.00 | 0.00 | 0.00 | 66 | 1016.3 |
| 20260903143921 | 88 | 191 | 2.0 | 6.0 | 0.00 | 0.00 | 0.00 | 67 | 1016.3 |
| 20260903143356 | 88 | 201 | 2.0 | 5.0 | 0.00 | 0.00 | 0.00 | 66 | 1016.3 |
| 20260903143103 | 88 | 209 | 2.0 | 4.0 | 0.00 | 0.00 | 0.00 | 66 | 1014.6 |
| 20260903142842 | 88 | 213 | 2.0 | 5.0 | 0.00 | 0.00 | 0.00 | 66 | 1016.3 |
| 20260903142344 | 88 | 214 | 2.0 | 6.0 | 0.00 | 0.00 | 0.00 | 66 | 1016.3 |
| 20260903141839 | 87 | 216 | 3.0 | 7.0 | 0.00 | 0.00 | 0.00 | 66 | 1016.4 |
| 20260903141529 | 87 | 197 | 1.0 | 7.0 | 0.00 | 0.00 | 0.00 | 67 | 1014.6 |
| 20260903141340 | 87 | 155 | 2.0 | 7.0 | 0.00 | 0.00 | 0.00 | 65 | 1016.3 |
| 20260903141028 | 86 | 150 | 2.0 | 6.0 | 0.00 | 0.00 | 0.00 | 67 | 1016.3 |
| 20260903140307 | 86 | 130 | 2.0 | 5.0 | 0.00 | 0.00 | 0.00 | 70 | 1016.3 |
| 20260903140023 | 85 | 129 | 2.0 | 5.0 | 0.00 | 0.00 | 0.00 | 69 | 1014.6 |
| 20260903135738 | 86 | 144 | 2.0 | 3.0 | 0.00 | 0.00 | 0.00 | 70 | 1016.3 |
| 20260903135236 | 85 | 145 | 1.0 | 4.0 | 0.00 | 0.00 | 0.00 | 71 | 1016.4 |
| 20260903134909 | 84 | 146 | 2.0 | 3.0 | 0.00 | 0.00 | 0.00 | 74 | 1016.5 |
| 20260903134755 | 84 | 146 | 1.0 | 4.0 | 0.00 | 0.00 | 0.00 | 73 | 1016.5 |
| 20260903134506 | 84 | 146 | 1.0 | 4.0 | 0.00 | 0.00 | 0.00 | 73 | 1014.8 |
| 20260903133904 | 83 | 146 | 2.0 | 4.0 | 0.00 | 0.00 | 0.00 | 74 | 1016.5 |
| 20260903133116 | 83 | 146 | 2.0 | 5.0 | 0.00 | 0.00 | 0.00 | 75 | 1016.6 |
| 20260903133044 | 82 | 146 | 2.0 | 4.0 | 0.00 | 0.00 | 0.00 | 75 | 1014.9 |
| 20260903132545 | 83 | 146 | 2.0 | 5.0 | 0.00 | 0.00 | 0.00 | 76 | 1016.7 |
| 20260903132044 | 82 | 141 | 3.0 | 5.0 | 0.00 | 0.00 | 0.00 | 77 | 1016.7 |
| 20260903132024 | 82 | 142 | 2.0 | 5.0 | 0.00 | 0.00 | 0.00 | 77 | 1016.7 |
| 20260903131558 | 81 | 142 | 2.0 | 5.0 | 0.00 | 0.00 | 0.00 | 77 | 1015.0 |
| 20260903131038 | 82 | 119 | 2.0 | 4.0 | 0.00 | 0.00 | 0.00 | 78 | 1016.8 |
| 20260903130737 | 81 | 116 | 2.0 | 4.0 | 0.00 | 0.00 | 0.00 | 78 | 1016.8 |
| 20260903130103 | 81 | 117 | 1.0 | 4.0 | 0.00 | 0.00 | 0.00 | 79 | 1015.1 |
| 20260903130012 | 81 | 117 | 2.0 | 4.0 | 0.00 | 0.00 | 0.00 | 79 | 1016.8 |
| 20260903125442 | 81 | 115 | 2.0 | 4.0 | 0.00 | 0.00 | 0.00 | 80 | 1016.8 |
| 20260903125204 | 80 | 115 | 2.0 | 3.0 | 0.00 | 0.00 | 0.00 | 81 | 1016.8 |
| 20260903124604 | 80 | 116 | 1.0 | 3.0 | 0.00 | 0.00 | 0.00 | 81 | 1015.1 |
| 20260903124414 | 80 | 115 | 2.0 | 4.0 | 0.00 | 0.00 | 0.00 | 81 | 1016.8 |
| 20260903124106 | 80 | 115 | 1.0 | 4.0 | 0.00 | 0.00 | 0.00 | 81 | 1017.0 |
| 20260903123343 | 80 | 113 | 1.0 | 4.0 | 0.00 | 0.00 | 0.00 | 82 | 1016.8 |
| 20260903123008 | 79 | 114 | 1.0 | 4.0 | 0.00 | 0.00 | 0.00 | 82 | 1015.1 |
| 20260903122838 | 79 | 113 | 1.0 | 4.0 | 0.00 | 0.00 | 0.00 | 82 | 1017.0 |
| 20260903122338 | 79 | 109 | 0.0 | 3.0 | 0.00 | 0.00 | 0.00 | 83 | 1017.0 |
| 20260903121810 | 79 | 106 | 0.0 | 1.0 | 0.00 | 0.00 | 0.00 | 83 | 1017.1 |
| 20260903121547 | 78 | 132 | 0.0 | 1.0 | 0.00 | 0.00 | 0.00 | 83 | 1015.2 |
| 20260903121305 | 79 | 115 | 0.0 | 2.0 | 0.00 | 0.00 | 0.00 | 83 | 1017.0 |
| 20260903120804 | 78 | 107 | 0.0 | 2.0 | 0.00 | 0.00 | 0.00 | 84 | 1017.0 |
| 20260903120238 | 78 | 106 | 0.0 | 0.0 | 0.00 | 0.00 | 0.00 | 84 | 1016.8 |
| 20260903120012 | 78 | 105 | 0.0 | 1.0 | 0.00 | 0.00 | 0.00 | 84 | 1015.1 |
| 20260903115738 | 78 | 101 | 0.0 | 2.0 | 0.00 | 0.00 | 0.00 | 84 | 1016.8 |
| 20260903115208 | 78 | 105 | 0.0 | 2.0 | 0.00 | 0.00 | 0.00 | 85 | 1016.8 |
| 20260903114705 | 78 | 107 | 0.0 | 2.0 | 0.00 | 0.00 | 0.00 | 85 | 1016.8 |
| 20260903114541 | 77 | 273 | 0.0 | 2.0 | 0.00 | 0.00 | 0.00 | 85 | 1015.0 |
| 20260903114201 | 78 | 106 | 0.0 | 2.0 | 0.00 | 0.00 | 0.00 | 85 | 1016.8 |
| 20260903113925 | 78 | 273 | 0.0 | 1.0 | 0.00 | 0.00 | 0.00 | 84 | 1016.8 |
| 20260903113350 | 78 | 107 | 0.0 | 1.0 | 0.00 | 0.00 | 0.00 | 84 | 1016.6 |
| 20260903113042 | 77 | 273 | 0.0 | 1.0 | 0.00 | 0.00 | 0.00 | 84 | 1014.9 |
| 20260903112628 | 78 | 107 | 0.0 | 1.0 | 0.00 | 0.00 | 0.00 | 84 | 1016.6 |
| 20260903112129 | 78 | 107 | 0.0 | 2.0 | 0.00 | 0.00 | 0.00 | 84 | 1016.5 |
| 20260903111827 | 78 | 108 | 0.0 | 2.0 | 0.00 | 0.00 | 0.00 | 84 | 1016.5 |
| 20260903111533 | 77 | 108 | 1.0 | 2.0 | 0.00 | 0.00 | 0.00 | 84 | 1014.8 |
| 20260903111038 | 78 | 109 | 0.0 | 2.0 | 0.00 | 0.00 | 0.00 | 84 | 1016.4 |
| 20260903110525 | 78 | 111 | 0.0 | 2.0 | 0.00 | 0.00 | 0.00 | 85 | 1016.4 |
| 20260903110202 | 78 | 112 | 0.0 | 2.0 | 0.00 | 0.00 | 0.00 | 85 | 1016.3 |
| 20260903110127 | 77 | 112 | 0.0 | 2.0 | 0.00 | 0.00 | 0.00 | 85 | 1014.6 |
| 20260903105439 | 78 | 113 | 0.0 | 1.0 | 0.00 | 0.00 | 0.00 | 85 | 1016.3 |
| 20260903104912 | 78 | 113 | 0.0 | 1.0 | 0.00 | 0.00 | 0.00 | 84 | 1016.2 |
| 20260903104537 | 78 | 107 | 0.0 | 1.0 | 0.00 | 0.00 | 0.00 | 84 | 1014.5 |
| 20260903104408 | 78 | 113 | 0.0 | 3.0 | 0.00 | 0.00 | 0.00 | 84 | 1016.2 |
| 20260903104129 | 78 | 273 | 0.0 | 3.0 | 0.00 | 0.00 | 0.00 | 84 | 1016.1 |
| 20260903103339 | 78 | 109 | 0.0 | 2.0 | 0.00 | 0.00 | 0.00 | 84 | 1016.1 |
| 20260903103026 | 78 | 273 | 0.0 | 3.0 | 0.00 | 0.00 | 0.00 | 84 | 1014.4 |
| 20260903102836 | 78 | 273 | 0.0 | 3.0 | 0.00 | 0.00 | 0.00 | 84 | 1016.1 |
| 20260903102528 | 78 | 112 | 1.0 | 3.0 | 0.00 | 0.00 | 0.00 | 84 | 1016.1 |
| 20260903101806 | 78 | 112 | 1.0 | 2.0 | 0.00 | 0.00 | 0.00 | 84 | 1016.1 |
| 20260903101541 | 78 | 114 | 0.0 | 2.0 | 0.00 | 0.00 | 0.00 | 84 | 1014.4 |
| 20260903101240 | 78 | 115 | 1.0 | 3.0 | 0.00 | 0.00 | 0.00 | 84 | 1016.1 |
| 20260903100714 | 78 | 273 | 1.0 | 3.0 | 0.00 | 0.00 | 0.00 | 84 | 1016.1 |
| 20260903100416 | 78 | 273 | 0.0 | 3.0 | 0.00 | 0.00 | 0.00 | 84 | 1016.1 |
| 20260903100054 | 78 | 116 | 0.0 | 1.0 | 0.00 | 0.00 | 0.00 | 84 | 1014.4 |
| 20260903095917 | 78 | 116 | 0.0 | 3.0 | 0.00 | 0.00 | 0.00 | 84 | 1016.0 |
| 20260903095152 | 78 | 116 | 0.0 | 3.0 | 0.00 | 0.00 | 0.00 | 84 | 1016.1 |
| 20260903094652 | 78 | 116 | 0.0 | 1.0 | 0.00 | 0.00 | 0.00 | 84 | 1016.0 |
| 20260903094609 | 78 | 117 | 0.0 | 1.0 | 0.00 | 0.00 | 0.00 | 84 | 1014.3 |
| 20260903094151 | 78 | 116 | 0.0 | 1.0 | 0.00 | 0.00 | 0.00 | 84 | 1016.0 |
| 20260903093653 | 78 | 116 | 0.0 | 1.0 | 0.00 | 0.00 | 0.00 | 84 | 1016.0 |
| 20260903093128 | 79 | 114 | 1.0 | 4.0 | 0.00 | 0.00 | 0.00 | 83 | 1015.9 |
| 20260903093055 | 78 | 114 | 0.0 | 4.0 | 0.00 | 0.00 | 0.00 | 83 | 1014.2 |
| 20260903092826 | 79 | 113 | 0.0 | 4.0 | 0.00 | 0.00 | 0.00 | 83 | 1015.9 |
| 20260903092057 | 79 | 113 | 0.0 | 3.0 | 0.00 | 0.00 | 0.00 | 82 | 1016.0 |
| 20260903091614 | 79 | 112 | 0.0 | 3.0 | 0.00 | 0.00 | 0.00 | 82 | 1014.2 |
| 20260903091552 | 79 | 112 | 0.0 | 3.0 | 0.00 | 0.00 | 0.00 | 82 | 1016.0 |
| 20260903091315 | 79 | 113 | 0.0 | 3.0 | 0.00 | 0.00 | 0.00 | 82 | 1016.0 |
| 20260903090523 | 79 | 107 | 1.0 | 3.0 | 0.00 | 0.00 | 0.00 | 82 | 1016.0 |
| 20260903090100 | 79 | 106 | 0.0 | 3.0 | 0.00 | 0.00 | 0.00 | 81 | 1014.3 |
| 20260903090021 | 80 | 107 | 1.0 | 3.0 | 0.00 | 0.00 | 0.00 | 81 | 1016.0 |
| 20260903085716 | 80 | 105 | 1.0 | 3.0 | 0.00 | 0.00 | 0.00 | 81 | 1016.0 |
| 20260903085146 | 80 | 101 | 0.0 | 2.0 | 0.00 | 0.00 | 0.00 | 81 | 1016.0 |
| 20260903084508 | 79 | 101 | 0.0 | 2.0 | 0.00 | 0.00 | 0.00 | 81 | 1014.1 |
| 20260903084430 | 80 | 101 | 1.0 | 2.0 | 0.00 | 0.00 | 0.00 | 81 | 1015.9 |
| 20260903083856 | 80 | 101 | 0.0 | 2.0 | 0.00 | 0.00 | 0.00 | 81 | 1015.8 |
| 20260903083351 | 80 | 101 | 0.0 | 1.0 | 0.00 | 0.00 | 0.00 | 81 | 1015.8 |
| 20260903083108 | 80 | 101 | 0.0 | 1.0 | 0.00 | 0.00 | 0.00 | 81 | 1015.8 |
| 20260903083040 | 79 | 101 | 0.0 | 0.0 | 0.00 | 0.00 | 0.00 | 81 | 1014.1 |
| 20260903082324 | 80 | 101 | 0.0 | 1.0 | 0.00 | 0.00 | 0.00 | 80 | 1015.9 |
| 20260903081758 | 80 | 101 | 0.0 | 3.0 | 0.00 | 0.00 | 0.00 | 80 | 1015.8 |
| 20260903081559 | 80 | 101 | 0.0 | 2.0 | 0.00 | 0.00 | 0.00 | 80 | 1014.1 |
| 20260903081256 | 80 | 101 | 1.0 | 3.0 | 0.00 | 0.00 | 0.00 | 80 | 1015.8 |
| 20260903080735 | 80 | 273 | 1.0 | 3.0 | 0.00 | 0.00 | 0.00 | 80 | 1015.9 |
| 20260903080206 | 80 | 273 | 1.0 | 3.0 | 0.00 | 0.00 | 0.00 | 79 | 1015.8 |
| 20260903080005 | 80 | 273 | 1.0 | 3.0 | 0.00 | 0.00 | 0.00 | 79 | 1014.1 |
| 20260903075706 | 80 | 273 | 1.0 | 3.0 | 0.00 | 0.00 | 0.00 | 79 | 1015.8 |
| 20260903075143 | 81 | 101 | 0.0 | 2.0 | 0.00 | 0.00 | 0.00 | 78 | 1015.8 |
| 20260903074643 | 81 | 273 | 1.0 | 3.0 | 0.00 | 0.00 | 0.00 | 78 | 1015.8 |
| 20260903074504 | 80 | 273 | 0.0 | 3.0 | 0.00 | 0.00 | 0.00 | 78 | 1014.0 |
| 20260903074117 | 81 | 273 | 1.0 | 3.0 | 0.00 | 0.00 | 0.00 | 78 | 1015.8 |
| 20260903073617 | 81 | 101 | 0.0 | 2.0 | 0.00 | 0.00 | 0.00 | 78 | 1015.7 |
| 20260903073053 | 81 | 101 | 0.0 | 1.0 | 0.00 | 0.00 | 0.00 | 78 | 1015.7 |
| 20260903073030 | 81 | 101 | 0.0 | 1.0 | 0.00 | 0.00 | 0.00 | 78 | 1014.0 |
| 20260903072531 | 81 | 273 | 0.0 | 1.0 | 0.00 | 0.00 | 0.00 | 77 | 1015.7 |
| 20260903072007 | 81 | 273 | 0.0 | 1.0 | 0.00 | 0.00 | 0.00 | 77 | 1015.7 |
| 20260903071551 | 81 | 273 | 0.0 | 1.0 | 0.00 | 0.00 | 0.00 | 77 | 1013.9 |
| 20260903071508 | 81 | 273 | 0.0 | 1.0 | 0.00 | 0.00 | 0.00 | 77 | 1015.6 |
| 20260903071204 | 82 | 273 | 1.0 | 2.0 | 0.00 | 0.00 | 0.00 | 77 | 1015.6 |
| 20260903070447 | 82 | 101 | 0.0 | 2.0 | 0.00 | 0.00 | 0.00 | 77 | 1015.6 |
| 20260903070107 | 81 | 101 | 0.0 | 2.0 | 0.00 | 0.00 | 0.00 | 76 | 1013.9 |
| 20260903065919 | 82 | 273 | 0.0 | 2.0 | 0.00 | 0.00 | 0.00 | 76 | 1015.6 |
| 20260903065353 | 82 | 101 | 1.0 | 2.0 | 0.00 | 0.00 | 0.00 | 76 | 1015.7 |
| 20260903065050 | 82 | 101 | 1.0 | 2.0 | 0.00 | 0.00 | 0.00 | 76 | 1015.7 |
| 20260903064542 | 81 | 273 | 0.0 | 2.0 | 0.00 | 0.00 | 0.00 | 76 | 1014.0 |
| 20260903064307 | 82 | 273 | 1.0 | 2.0 | 0.00 | 0.00 | 0.00 | 76 | 1015.7 |
| 20260903063807 | 82 | 273 | 1.0 | 4.0 | 0.00 | 0.00 | 0.00 | 76 | 1015.7 |
| 20260903063250 | 82 | 273 | 1.0 | 4.0 | 0.00 | 0.00 | 0.00 | 75 | 1015.7 |
| 20260903063047 | 82 | 273 | 0.0 | 2.0 | 0.00 | 0.00 | 0.00 | 76 | 1014.0 |
| 20260903062749 | 82 | 273 | 1.0 | 2.0 | 0.00 | 0.00 | 0.00 | 75 | 1015.8 |
| 20260903062229 | 82 | 273 | 0.0 | 0.0 | 0.00 | 0.00 | 0.00 | 75 | 1015.8 |
| 20260903061945 | 82 | 273 | 0.0 | 2.0 | 0.00 | 0.00 | 0.00 | 75 | 1015.7 |
| 20260903061604 | 82 | 273 | 0.0 | 1.0 | 0.00 | 0.00 | 0.00 | 75 | 1014.0 |
| 20260903061227 | 82 | 100 | 0.0 | 2.0 | 0.00 | 0.00 | 0.00 | 75 | 1015.8 |
| 20260903060943 | 82 | 100 | 1.0 | 2.0 | 0.00 | 0.00 | 0.00 | 75 | 1015.7 |
| 20260903060219 | 82 | 100 | 1.0 | 2.0 | 0.00 | 0.00 | 0.00 | 75 | 1015.7 |
| 20260903060006 | 82 | 99 | 1.0 | 2.0 | 0.00 | 0.00 | 0.00 | 75 | 1014.0 |
| 20260903055713 | 82 | 100 | 1.0 | 2.0 | 0.00 | 0.00 | 0.00 | 75 | 1015.7 |
| 20260903055211 | 82 | 99 | 1.0 | 3.0 | 0.00 | 0.00 | 0.00 | 74 | 1015.7 |
| 20260903054716 | 83 | 100 | 1.0 | 3.0 | 0.00 | 0.00 | 0.00 | 74 | 1015.7 |
| 20260903054546 | 82 | 99 | 1.0 | 3.0 | 0.00 | 0.00 | 0.00 | 74 | 1013.9 |
| 20260903054151 | 83 | 100 | 0.0 | 2.0 | 0.00 | 0.00 | 0.00 | 74 | 1015.6 |
| 20260903053652 | 83 | 273 | 0.0 | 2.0 | 0.00 | 0.00 | 0.00 | 73 | 1015.6 |
| 20260903053153 | 83 | 273 | 1.0 | 3.0 | 0.00 | 0.00 | 0.00 | 73 | 1015.6 |
| 20260903053058 | 83 | 273 | 0.0 | 3.0 | 0.00 | 0.00 | 0.00 | 73 | 1013.9 |
| 20260903052633 | 83 | 99 | 1.0 | 3.0 | 0.00 | 0.00 | 0.00 | 73 | 1015.6 |
| 20260903052113 | 83 | 273 | 1.0 | 3.0 | 0.00 | 0.00 | 0.00 | 73 | 1015.6 |
| 20260903051613 | 83 | 99 | 1.0 | 3.0 | 0.00 | 0.00 | 0.00 | 72 | 1015.6 |
| 20260903051543 | 83 | 99 | 1.0 | 3.0 | 0.00 | 0.00 | 0.00 | 73 | 1013.9 |
| 20260903051312 | 83 | 273 | 1.0 | 4.0 | 0.00 | 0.00 | 0.00 | 72 | 1015.6 |
| 20260903050550 | 83 | 273 | 2.0 | 7.0 | 0.00 | 0.00 | 0.00 | 72 | 1015.5 |
| 20260903050027 | 83 | 96 | 1.0 | 7.0 | 0.00 | 0.00 | 0.00 | 72 | 1015.5 |
| 20260903050007 | 83 | 97 | 3.0 | 7.0 | 0.00 | 0.00 | 0.00 | 72 | 1013.7 |
| 20260903045523 | 83 | 113 | 1.0 | 1.0 | 0.00 | 0.00 | 0.00 | 72 | 1015.5 |
| 20260903045004 | 84 | 113 | 1.0 | 3.0 | 0.00 | 0.00 | 0.00 | 72 | 1015.5 |
| 20260903044517 | 83 | 113 | 1.0 | 3.0 | 0.00 | 0.00 | 0.00 | 72 | 1013.7 |
| 20260903044503 | 84 | 114 | 1.0 | 3.0 | 0.00 | 0.00 | 0.00 | 72 | 1015.4 |
| 20260903044005 | 84 | 113 | 1.0 | 3.0 | 0.00 | 0.00 | 0.00 | 71 | 1015.4 |
| 20260903043450 | 84 | 113 | 1.0 | 2.0 | 0.00 | 0.00 | 0.00 | 71 | 1015.4 |
| 20260903043019 | 84 | 113 | 1.0 | 3.0 | 0.00 | 0.00 | 0.00 | 71 | 1013.7 |
| 20260903042949 | 84 | 113 | 1.0 | 3.0 | 0.00 | 0.00 | 0.00 | 71 | 1015.5 |
| 20260903042448 | 84 | 113 | 1.0 | 3.0 | 0.00 | 0.00 | 0.00 | 70 | 1015.4 |
| 20260903042212 | 84 | 113 | 1.0 | 2.0 | 0.00 | 0.00 | 0.00 | 70 | 1015.4 |
| 20260903041506 | 84 | 113 | 0.0 | 2.0 | 0.00 | 0.00 | 0.00 | 70 | 1013.6 |
| 20260903041434 | 84 | 113 | 1.0 | 2.0 | 0.00 | 0.00 | 0.00 | 70 | 1015.3 |
| 20260903041141 | 85 | 113 | 1.0 | 3.0 | 0.00 | 0.00 | 0.00 | 69 | 1015.4 |
| 20260903040421 | 85 | 113 | 1.0 | 3.0 | 0.00 | 0.00 | 0.00 | 69 | 1015.4 |
| 20260903040143 | 85 | 112 | 1.0 | 2.0 | 0.00 | 0.00 | 0.00 | 69 | 1015.4 |
| 20260903040001 | 84 | 112 | 0.0 | 2.0 | 0.00 | 0.00 | 0.00 | 69 | 1013.6 |
| 20260903035358 | 85 | 113 | 1.0 | 3.0 | 0.00 | 0.00 | 0.00 | 69 | 1015.4 |
| 20260903034827 | 85 | 112 | 1.0 | 3.0 | 0.00 | 0.00 | 0.00 | 69 | 1015.4 |
| 20260903034515 | 85 | 112 | 0.0 | 2.0 | 0.00 | 0.00 | 0.00 | 68 | 1013.7 |
| 20260903034325 | 85 | 112 | 1.0 | 2.0 | 0.00 | 0.00 | 0.00 | 68 | 1015.5 |
| 20260903033800 | 85 | 113 | 1.0 | 3.0 | 0.00 | 0.00 | 0.00 | 68 | 1015.5 |
| 20260903033722 | 85 | 112 | 1.0 | 3.0 | 0.00 | 0.00 | 0.00 | 68 | 1015.5 |
| 20260903033108 | 85 | 112 | 1.0 | 3.0 | 0.00 | 0.00 | 0.00 | 68 | 1013.7 |
| 20260903032705 | 86 | 112 | 1.0 | 2.0 | 0.00 | 0.00 | 0.00 | 67 | 1015.5 |
| 20260903032203 | 86 | 112 | 1.0 | 2.0 | 0.00 | 0.00 | 0.00 | 67 | 1015.5 |
| 20260903031659 | 86 | 113 | 1.0 | 3.0 | 0.00 | 0.00 | 0.00 | 67 | 1015.5 |
| 20260903031607 | 85 | 112 | 0.0 | 3.0 | 0.00 | 0.00 | 0.00 | 67 | 1013.8 |
| 20260903031157 | 86 | 112 | 1.0 | 3.0 | 0.00 | 0.00 | 0.00 | 67 | 1015.5 |
| 20260903030850 | 86 | 111 | 1.0 | 3.0 | 0.00 | 0.00 | 0.00 | 67 | 1015.5 |
| 20260903030126 | 86 | 111 | 1.0 | 3.0 | 0.00 | 0.00 | 0.00 | 66 | 1015.6 |
| 20260903030009 | 86 | 111 | 0.0 | 3.0 | 0.00 | 0.00 | 0.00 | 66 | 1013.9 |
| 20260903025622 | 87 | 110 | 1.0 | 3.0 | 0.00 | 0.00 | 0.00 | 66 | 1015.7 |
| 20260903025053 | 87 | 109 | 1.0 | 2.0 | 0.00 | 0.00 | 0.00 | 65 | 1015.7 |
| 20260903024552 | 87 | 109 | 1.0 | 3.0 | 0.00 | 0.00 | 0.00 | 65 | 1015.7 |
| 20260903024534 | 86 | 109 | 0.0 | 3.0 | 0.00 | 0.00 | 0.00 | 65 | 1014.0 |
| 20260903024047 | 87 | 109 | 1.0 | 3.0 | 0.00 | 0.00 | 0.00 | 65 | 1015.7 |
| 20260903023545 | 87 | 108 | 1.0 | 3.0 | 0.00 | 0.00 | 0.00 | 64 | 1015.8 |
| 20260903023059 | 87 | 108 | 0.0 | 4.0 | 0.00 | 0.00 | 0.00 | 64 | 1014.0 |
| 20260903023041 | 87 | 108 | 1.0 | 4.0 | 0.00 | 0.00 | 0.00 | 64 | 1015.8 |